Tomahawk, WI

6:39 AM CDT on April 25, 2018 (GMT -0500)
Tomahawk

Weather History for KTKV - April, 2014

Change the Weather History Date:

Friday, April 11, 2014

  Actual Average (KRHI) Record (KRHI)
Temperature  
Mean Temperature 38 °F -  
Max Temperature 53 °F 50 °F 80 °F (1977)
Min Temperature 22 °F 27 °F 6 °F (1952)
Degree Days  
Heating Degree Days 28    
Moisture  
Dew Point 28 °F    
Average Humidity 72    
Maximum Humidity 90    
Minimum Humidity 35    
Precipitation  
Precipitation 0.04 in - - ()
Sea Level Pressure  
Sea Level Pressure 29.94 in    
Wind  
Wind Speed 1 mph (West)    
Max Wind Speed 10 mph    
Max Gust Speed 17 mph    
Visibility 10 miles    
Events Rain    
Averages and records for this station are not official NWS values.
T = Trace of Precipitation, MM = Missing Value Source: NWS Daily Summary

Daily Weather History Graph

Daily Weather History Graph

Search for Another Location

Airport or City:

Astronomy

Apr. 11, 2014 Rise Set
Actual Time 6:20 AM CDT 7:40 PM CDT
Civil Twilight 5:50 AM CDT 8:11 PM CDT
Nautical Twilight 5:13 AM CDT 8:48 PM CDT
Astronomical Twilight 4:34 AM CDT 9:27 PM CDT
Moon 4:11 PM CDT (4/11) 4:26 AM CDT (4/11)
Length of Visible Light 14h 20m
Length of Day
13h 19m
Waxing Gibbous, 87% of the Moon is Illuminated
Apr 11
Waxing Gibbous
Apr 15
Full
Apr 22
Last Quarter
Apr 29
New
May 6
First Quarter

Hourly Weather History & Observations

Time (CDT) Temp. Windchill Dew Point Humidity Pressure Visibility Wind Dir Wind Speed Gust Speed Precip Events Conditions
12:15 AM 27.5 °F - 21.2 °F 77% 29.89 in 10.0 mi Calm Calm - N/A   Clear
12:35 AM 27.5 °F - 20.7 °F 75% 29.90 in 10.0 mi Calm Calm - N/A   Clear
12:55 AM 27.1 °F - 21.2 °F 78% 29.90 in 10.0 mi Calm Calm - N/A   Clear
1:15 AM 27.5 °F - 20.7 °F 75% 29.90 in 10.0 mi Calm Calm - N/A   Clear
1:35 AM 26.1 °F - 20.8 °F 81% 29.90 in 10.0 mi Calm Calm - N/A   Clear
1:55 AM 26.6 °F - 21.4 °F 81% 29.90 in 10.0 mi Calm Calm - N/A   Clear
2:15 AM 25.9 °F - 21.2 °F 82% 29.90 in 10.0 mi Calm Calm - N/A   Clear
2:35 AM 25.9 °F - 21.0 °F 82% 29.91 in 10.0 mi Calm Calm - N/A   Clear
2:55 AM 24.8 °F - 20.5 °F 84% 29.91 in 10.0 mi Calm Calm - N/A   Clear
3:15 AM 24.4 °F - 20.1 °F 84% 29.91 in 10.0 mi Calm Calm - N/A   Clear
3:35 AM 23.9 °F - 19.8 °F 84% 29.91 in 10.0 mi Calm Calm - N/A   Clear
3:55 AM 24.6 °F - 20.3 °F 84% 29.92 in 10.0 mi Calm Calm - N/A   Clear
4:15 AM 24.8 °F - 21.2 °F 86% 29.92 in 10.0 mi Calm Calm - N/A   Clear
4:35 AM 23.5 °F - 20.3 °F 87% 29.92 in 10.0 mi Calm Calm - N/A   Clear
4:55 AM 23.0 °F - 19.9 °F 88% 29.92 in 10.0 mi Calm Calm - N/A   Clear
5:15 AM 22.8 °F - 19.9 °F 89% 29.92 in 10.0 mi Calm Calm - N/A   Clear
5:35 AM 24.1 °F - 21.0 °F 88% 29.92 in 10.0 mi Calm Calm - N/A   Clear
5:55 AM 23.0 °F - 19.9 °F 88% 29.92 in 10.0 mi Calm Calm - N/A   Clear
6:35 AM 22.8 °F - 20.3 °F 90% 29.93 in 10.0 mi Calm Calm - N/A   Mostly Cloudy
6:55 AM 23.7 °F - 21.0 °F 89% 29.94 in 10.0 mi Calm Calm - N/A   Scattered Clouds
7:15 AM 27.1 °F - 23.7 °F 87% 29.95 in 10.0 mi Calm Calm - N/A   Mostly Cloudy
7:35 AM 29.1 °F - 25.3 °F 86% 29.95 in 10.0 mi Calm Calm - N/A   Overcast
7:55 AM 30.6 °F - 26.6 °F 85% 29.96 in 10.0 mi Calm Calm - N/A   Overcast
8:15 AM 31.5 °F - 25.7 °F 79% 29.96 in 10.0 mi Calm Calm - N/A   Overcast
8:35 AM 32.9 °F - 26.8 °F 78% 29.96 in 10.0 mi Calm Calm - N/A   Overcast
8:55 AM 37.6 °F 33.1 °F 27.7 °F 67% 29.96 in 10.0 mi West 5.8 mph - N/A Rain Light Rain
9:15 AM 39.7 °F - 30.0 °F 68% 29.96 in 10.0 mi Calm Calm - N/A   Overcast
9:35 AM 41.2 °F 35.5 °F 31.8 °F 69% 29.97 in 10.0 mi WNW 9.2 mph - N/A   Overcast
9:55 AM 41.7 °F 36.7 °F 32.2 °F 69% 29.97 in 10.0 mi WNW 8.1 mph - N/A   Light Drizzle
10:15 AM 41.9 °F - 32.7 °F 70% 29.97 in 10.0 mi Calm Calm - N/A   Overcast
10:35 AM 42.4 °F - 32.5 °F 68% 29.97 in 10.0 mi Calm Calm - N/A   Mostly Cloudy
10:55 AM 42.1 °F - 33.3 °F 71% 29.97 in 10.0 mi Calm Calm - N/A   Light Drizzle
11:15 AM 41.5 °F 39.6 °F 33.1 °F 72% 29.97 in 10.0 mi NNW 3.5 mph - N/A   Overcast
11:35 AM 39.6 °F - 34.5 °F 82% 29.98 in 7.0 mi Calm Calm - N/A Rain Light Rain
11:55 AM 38.8 °F - 35.2 °F 87% 29.98 in 7.0 mi Calm Calm - 0.01 in Rain Rain
12:15 PM 38.8 °F - 35.8 °F 89% 29.98 in 5.0 mi Calm Calm - 0.01 in Rain Light Rain
12:35 PM 39.6 °F - 36.5 °F 89% 29.98 in 7.0 mi Calm Calm - 0.03 in Rain Light Rain
12:55 PM 40.8 °F - 36.9 °F 86% 29.97 in 10.0 mi Calm Calm - 0.03 in   Overcast
1:15 PM 42.4 °F - 37.4 °F 82% 29.97 in 10.0 mi Calm Calm - N/A   Overcast
1:35 PM 42.8 °F - 37.4 °F 81% 29.96 in 10.0 mi Calm Calm - N/A   Overcast
1:55 PM 43.5 °F - 37.2 °F 78% 29.96 in 10.0 mi Calm Calm - N/A   Overcast
2:15 PM 45.0 °F - 37.2 °F 74% 29.95 in 10.0 mi Calm Calm - N/A   Scattered Clouds
2:35 PM 45.7 °F - 37.0 °F 72% 29.95 in 10.0 mi Calm Calm - N/A   Mostly Cloudy
2:55 PM 47.7 °F - 35.8 °F 63% 29.95 in 10.0 mi West 3.5 mph - N/A   Scattered Clouds
3:15 PM 49.1 °F - 35.1 °F 58% 29.94 in 10.0 mi Calm Calm - N/A   Scattered Clouds
3:35 PM 50.2 °F - 34.7 °F 55% 29.94 in 10.0 mi West 4.6 mph - N/A   Scattered Clouds
3:55 PM 52.0 °F - 32.7 °F 48% 29.93 in 10.0 mi West 5.8 mph - N/A   Clear
4:15 PM 53.2 °F - 27.9 °F 38% 29.93 in 10.0 mi West 10.4 mph - N/A   Clear
4:35 PM 53.2 °F - 27.1 °F 37% 29.92 in 10.0 mi West 6.9 mph 17.3 mph N/A   Clear
4:55 PM 53.6 °F - 26.2 °F 35% 29.93 in 10.0 mi WNW 10.4 mph 17.3 mph N/A   Clear
5:15 PM 53.6 °F - 27.1 °F 36% 29.93 in 10.0 mi West 9.2 mph 17.3 mph N/A   Scattered Clouds
5:35 PM 53.2 °F - 27.9 °F 38% 29.93 in 10.0 mi West 5.8 mph 10.4 mph N/A   Scattered Clouds
5:55 PM 53.2 °F - 28.6 °F 39% 29.93 in 10.0 mi West 10.4 mph - N/A   Scattered Clouds
6:15 PM 52.3 °F - 27.9 °F 39% 29.93 in 10.0 mi Calm Calm - N/A   Clear
6:35 PM 52.0 °F - 27.9 °F 39% 29.93 in 10.0 mi West 5.8 mph - N/A   Clear
6:55 PM 51.1 °F - 28.2 °F 41% 29.93 in 10.0 mi Calm Calm - N/A   Clear
7:15 PM 48.4 °F - 28.2 °F 46% 29.94 in 10.0 mi Calm Calm - N/A   Clear
7:35 PM 47.5 °F - 27.9 °F 47% 29.94 in 10.0 mi Calm Calm - N/A   Clear
7:55 PM 45.0 °F - 28.2 °F 52% 29.95 in 10.0 mi Calm Calm - N/A   Clear
8:15 PM 39.0 °F - 28.9 °F 67% 29.95 in 10.0 mi Calm Calm - N/A   Clear
8:35 PM 37.4 °F - 28.9 °F 71% 29.95 in 10.0 mi Calm Calm - N/A   Clear
8:55 PM 36.0 °F - 28.9 °F 76% 29.96 in 10.0 mi Calm Calm - N/A   Clear
9:15 PM 34.2 °F - 28.0 °F 78% 29.97 in 10.0 mi Calm Calm - N/A   Clear
9:35 PM 33.6 °F - 27.9 °F 79% 29.98 in 10.0 mi Calm Calm - N/A   Clear
9:55 PM 33.3 °F - 28.0 °F 81% 29.98 in 10.0 mi Calm Calm - N/A   Clear
10:15 PM 33.3 °F - 28.0 °F 81% 29.99 in 10.0 mi Calm Calm - N/A   Clear
10:35 PM 32.9 °F - 28.4 °F 84% 29.98 in 10.0 mi Calm Calm - N/A   Clear
10:55 PM 33.1 °F - 27.9 °F 81% 29.98 in 10.0 mi Calm Calm - N/A   Clear
11:15 PM 33.1 °F - 27.5 °F 80% 29.97 in 10.0 mi Calm Calm - N/A   Clear
11:35 PM 32.2 °F - 27.9 °F 84% 29.97 in 10.0 mi Calm Calm - N/A   Clear
11:55 PM 32.2 °F - 28.0 °F 85% 29.98 in 10.0 mi Calm Calm - N/A   Clear